Miscellaneous Local Product
Issued by NWS Hastings, NE

Home | Current Version | Previous Version | Text Only | Print | Product List | Glossary Off
Versions: 1 2 3 4 5 6 7 8 9 10 11 12 13 14 15 16 17 18 19 20 21 22 23 24 25 26 27 28 29 30 31 32 33 34 35 36 37 38 39 40 41 42 43 44 45 46 47 48 49 50

000
AXUS43 KGID 212010
MISGRI

GID CWA HOURLY WEATHER ROUNDUP
NATIONAL WEATHER SERVICE HASTINGS NE
300 PM CDT MON JUL 21 2014

NOTE: "FAIR" INDICATES FEW OR NO CLOUDS BELOW 12,000 FEET WITH NO
SIGNIFICANT WEATHER AND/OR OBSTRUCTIONS TO VISIBILITY.

...SOUTH CENTRAL NEBRASKA...

CITY           SKY/WX    TMP DP  RH WIND       PRES   REMARKS
GRAND ISLAND   MOSUNNY   98  71  41 SW14      29.88R HX 106
HASTINGS       MOSUNNY   96  67  38 SW8       29.89S HX 100
KEARNEY        PTSUNNY   93  72  49 S12       29.90S HX 100
ORD            PTSUNNY   91  72  53 SE5       29.84F HX  98
YORK           MOSUNNY   91  81  70 S7        29.87S HX 110
AURORA         MOSUNNY   92  77  60 SW9       29.87S HX 105
LEXINGTON      PTSUNNY   99  65  33 S3        29.91S HX 102
HOLDREGE       MOSUNNY   99  61  28 SW12      29.92R HX 100
HEBRON         SUNNY     99  69  37 SW13G21   29.87F HX 106

...NEBRASKA PANHANDLE...

CITY           SKY/WX    TMP DP  RH WIND       PRES   REMARKS
CHADRON        SUNNY    102  43  13 W16G36    29.89F HX  97
ALLIANCE       SUNNY    100  43  14 W9G28     29.99S HX  96
SCOTTSBLUFF    SUNNY     99  48  17 W12G20    30.01F HX  95
SIDNEY         PTSUNNY  100  41  13 W8        30.05F HX  95

...WESTERN AND NORTH CENTRAL NEBRASKA...

CITY           SKY/WX    TMP DP  RH WIND       PRES   REMARKS
VALENTINE      MOSUNNY  103  51  17 W17G24    29.85S HX 100
AINSWORTH      MOSUNNY   99  53  21 W12G17    29.87S HX  96
ONEILL         PTSUNNY  101  54  21 S10       29.82F HX  99
BROKEN BOW     MOSUNNY   91  76  61 MISG      29.90S HX 103
IMPERIAL       CLOUDY    96  49  20 S5        29.99R HX  93
NORTH PLATTE   PTSUNNY   97  61  30 S6        29.93S HX  97
MCCOOK         MOSUNNY   98  59  27 VRB5      29.94S HX  98

...EASTERN NEBRASKA...

CITY           SKY/WX    TMP DP  RH WIND       PRES   REMARKS
NORFOLK        MOSUNNY   91  76  61 S9        29.82S HX 103
SO SIOUX CITY  PTSUNNY   89  78  70 S12       29.81F HX 103
TEKAMAH        MOSUNNY   95  75  52 S15       29.83S HX 107
COLUMBUS       MOSUNNY   88  73  62 S8        29.85S HX  96
ALBION         PTSUNNY   94  71  47 S8        29.85R HX 100
OMAHA EPPLEY   MOSUNNY   94  72  48 S18       29.84F HX 102
OFFUTT AFB     MOSUNNY   93  76  57 S14G22    29.85F HX 106
MILLARD        SUNNY     92  76  58 S15       29.85S HX 105
LINCOLN        MOSUNNY   97  74  47 S15G26    29.86S HX 108
NEBRASKA CITY  MOSUNNY   94  74  53 S17G24    29.88F HX 104
BEATRICE       MOSUNNY   92  74  55 S12       29.88F HX 102
FALLS CITY     MOSUNNY   92  76  59 S14G23    29.90F HX 104

...NORTHERN KANSAS...

CITY           SKY/WX    TMP DP  RH WIND       PRES   REMARKS
GOODLAND       MOSUNNY   95  63  34 NW7       30.01F HX  96
HILL CITY      SUNNY    105  64  26 S14       29.92S HX 108
NORTON         CLEAR    100  57  23 SW6       29.91S HX  99
PHILLIPSBURG   SUNNY    102  64  29 S12       29.90S HX 105
SMITH CENTER   SUNNY    104  64  27 SW20G26   29.90S HX 107
BELOIT         SUNNY     46  19  34 S12G17    29.88S
HAYS           SUNNY     97  70  41 S20G25    29.93F HX 103
RUSSELL        SUNNY     97  73  45 S21       29.92S HX 107
CONCORDIA      SUNNY     99  71  40 S18G26    29.89F HX 107
SALINA         SUNNY    104  69  32 S21G29    29.91F HX 111
TOPEKA         MOSUNNY   97  73  45 S14G22    29.94F HX 107



USA.gov is the U.S. government's official web portal to all federal, state and local government web resources and services.